STARLINK-1734, 46325

Orbit data source: Space-Track

STARLINK-1734, 46325 is a payload satellite owned by SpaceX/Seattle (US) in LEO that was launched on Thu, 03 Sep 2020 UTC via an FALCON 9 launch vehicle from the Air Force Eastern Test Range (AFETR). Payload-class satellites include a variety of spacecraft equipped with specific instruments for various scientific and technological missions. These include communications satellites like Starlink; space stations such as the ISS; scientific satellites like the Hubble; Earth observation satellites from companies like Planet Labs, Umbra, and HawkEye 360; GPS; miniature CubeSats for education and research; and military/defense satellites.

Loading next visibility...
Identifier
46325, 2020-062A
Orbit
LEO
Last TLE update
19 hours ago
Origin
Manufacturer
SpaceX/Seattle
Mission
Partially operational Commercial Communications
Bus & Motor
STARLINK, Unknown motor
Mass
260 kg wet, ~248 kg dry
Launch date (UTC)
2020-09-03 (5 years ago)
Launch vehicle
FALCON 9
Launch site
Air Force Eastern Test Range (AFETR)
Object type
Payload
Rocket body
Debris
Shape & HBR
Box + 1 Pan, 8.86 m
Radar Cross Section
13.562 m², Large (>1 m²)

Expand to show TLE details & history

TLE from 19 hours ago
0 STARLINK-1734
1 46325U 20062A   25191.62457670  .00051765  00000-0  14429-2 0  9991
2 46325  53.0359 318.5559 0005187 119.3370 240.8151 15.36280547269344
Epoch: 2025-07-10T14:59Z
TLE epoch observation values (Epoch: 2025-07-10T14:59:23.426Z)
Latitude
Longitude
164.92011°
Altitude
459.738 km
Speed
7.637 km/s
True Right ascension
21h 14m 13s
True Declination
0° 00' 00"
Sunlit
Object was in full shadow at epoch
Visualization orbit readout
Latitude
19.17733°
Longitude
176.31515°
Altitude
457.741 km
Speed
7.641 km/s
Apparent Right ascension
21h 35m 33s
Apparent Declination
-49° 28' 34"
Sunlit
Object is in full shadow
Visualization observer readout
Local Sidereal Time
22:07:34
Azimuth
185.19° SSW
Elevation
0.33°
Doppler factor
1
Orbital elements
Apogee altitude
460.942 km
Perigee altitude
453.851 km
Semi-major axis
6,835.534 km
Eccentricity
0.00052
Inclination
53.0359°
RAAN
318.5559°
Arg. of periapsis
119.337°
True anomaly
Unknown
Mean anomaly
240.8151°
Eccentric anomaly
Unknown
Mean motion
3.84047 °/min
Orbital period
93.74 mins
BSTAR
0.0014429
Loading maneuver chart data...
Loading SW <> Apogee altitude chart data...
Loading historical data...
Loading historical data...
Loading historical data...
Loading historical data...
Loading historical data...
Loading historical data...
Loading historical data...

STARLINK-1734 Visibility forecast

Observer location: undefined°, undefined°

Span
Click to sort rows by Start time (UTC) header in descending order
Start Az.
Max El. time (UTC)
Max El. Az.
Max El.
End time (UTC)
End Az.
5 mins2025-07-11 11:29:47.661Z246.99° WSW2025-07-11 11:31:47.661Z336.593° NNW41.758°2025-07-11 11:34:47.661Z43.961° NE
5 mins2025-07-11 18:02:47.661Z305.461° NW2025-07-11 18:04:47.661Z270.53° WNW43.49°2025-07-11 18:07:47.661Z136.46° SSE
|